TimeEDT,TemperatureF,Dew PointF,Humidity,Sea Level PressureIn,VisibilityMPH,Wind Direction,Wind SpeedMPH,Gust SpeedMPH,PrecipitationIn,Events,Conditions,WindDirDegrees,DateUTC
12:19 AM,51.8,48.2,88,29.91,9.0,West,5.8,-,0.02,Rain,Light Rain,280,2012-10-06 04:19:00
12:46 AM,51.8,48.2,88,29.90,6.0,WNW,8.1,-,0.05,Rain,Light Rain,300,2012-10-06 04:46:00
12:53 AM,51.1,48.0,89,29.89,7.0,WNW,5.8,-,0.06,Rain,Light Rain,290,2012-10-06 04:53:00
1:34 AM,51.8,48.2,88,29.87,2.5,Variable,3.5,-,0.08,Rain,Rain,0,2012-10-06 05:34:00
1:47 AM,51.8,48.2,88,29.89,3.0,West,4.6,-,0.14,Rain,Rain,270,2012-10-06 05:47:00
1:53 AM,51.1,48.9,92,29.89,3.0,West,3.5,-,0.17,Rain,Rain,280,2012-10-06 05:53:00
2:01 AM,51.8,48.2,88,29.87,2.0,Calm,Calm,-,0.04,Rain,Heavy Rain,0,2012-10-06 06:01:00
2:21 AM,51.8,48.2,88,29.87,4.0,NW,8.1,-,0.11,Rain,Rain,310,2012-10-06 06:21:00
2:53 AM,50.0,46.9,89,29.86,10.0,NW,8.1,-,0.15,Rain,Light Rain,310,2012-10-06 06:53:00
3:05 AM,50.0,46.4,87,29.85,5.0,NW,9.2,-,0.02,Rain,Rain,320,2012-10-06 07:05:00
3:48 AM,50.0,46.4,87,29.88,3.0,West,8.1,-,0.15,Rain,Heavy Rain,280,2012-10-06 07:48:00
3:53 AM,50.0,46.9,89,29.89,3.0,West,8.1,-,0.18,Rain,Heavy Rain,280,2012-10-06 07:53:00
4:00 AM,48.2,46.4,93,29.88,2.5,West,8.1,-,0.03,Rain,Heavy Rain,270,2012-10-06 08:00:00
4:06 AM,48.2,46.4,93,29.88,3.0,West,6.9,-,0.06,Rain,Heavy Rain,260,2012-10-06 08:06:00
4:13 AM,48.2,46.4,93,29.88,3.0,Variable,5.8,-,0.09,Rain,Heavy Rain,0,2012-10-06 08:13:00
4:20 AM,48.2,46.4,93,29.88,4.0,West,8.1,-,0.11,Rain,Rain,260,2012-10-06 08:20:00
4:53 AM,48.9,46.0,90,29.88,6.0,NW,10.4,-,0.19,Rain,Rain,310,2012-10-06 08:53:00
5:53 AM,48.9,46.0,90,29.89,10.0,West,6.9,-,0.02,,Overcast,270,2012-10-06 09:53:00
6:09 AM,48.2,44.6,87,29.89,10.0,West,9.2,-,0.00,Rain,Light Rain,270,2012-10-06 10:09:00
7:53 AM,48.0,45.0,89,29.90,10.0,SSW,4.6,-,0.00,,Overcast,200,2012-10-06 11:53:00
8:42 AM,50.0,42.8,76,29.89,10.0,West,8.1,18.4,N/A,,Overcast,270,2012-10-06 12:42:00
8:53 AM,50.0,44.1,80,29.90,10.0,West,12.7,18.4,N/A,,Overcast,280,2012-10-06 12:53:00
9:53 AM,51.1,42.1,71,29.92,10.0,West,12.7,20.7,N/A,,Overcast,270,2012-10-06 13:53:00
10:08 AM,51.8,41.0,67,29.92,10.0,West,15.0,21.9,N/A,,Overcast,260,2012-10-06 14:08:00
10:53 AM,51.1,39.9,66,29.94,10.0,West,16.1,26.5,N/A,,Mostly Cloudy,260,2012-10-06 14:53:00
11:53 AM,51.1,39.0,63,29.95,10.0,West,12.7,25.3,N/A,,Mostly Cloudy,270,2012-10-06 15:53:00
12:53 PM,51.1,37.0,59,29.96,10.0,West,15.0,26.5,N/A,,Overcast,280,2012-10-06 16:53:00
1:53 PM,54.0,37.9,55,29.95,10.0,West,16.1,25.3,N/A,,Mostly Cloudy,260,2012-10-06 17:53:00
2:53 PM,53.1,35.1,50,29.95,10.0,West,19.6,31.1,N/A,,Overcast,260,2012-10-06 18:53:00
3:53 PM,52.0,37.9,59,29.97,10.0,West,20.7,32.2,N/A,,Overcast,260,2012-10-06 19:53:00
4:53 PM,51.1,37.9,61,29.98,10.0,West,16.1,26.5,N/A,,Overcast,280,2012-10-06 20:53:00
5:53 PM,50.0,36.0,59,30.00,10.0,WNW,12.7,24.2,N/A,,Overcast,290,2012-10-06 21:53:00
6:53 PM,50.0,35.1,57,30.01,10.0,West,13.8,23.0,N/A,,Overcast,280,2012-10-06 22:53:00
7:53 PM,50.0,30.9,48,30.04,10.0,WNW,15.0,21.9,N/A,,Overcast,290,2012-10-06 23:53:00
8:53 PM,51.1,33.1,50,30.05,10.0,West,8.1,-,N/A,,Overcast,280,2012-10-07 00:53:00
9:53 PM,51.1,33.1,50,30.06,10.0,West,11.5,16.1,N/A,,Overcast,280,2012-10-07 01:53:00
10:53 PM,50.0,33.1,52,30.06,10.0,West,9.2,-,N/A,,Overcast,270,2012-10-07 02:53:00
11:53 PM,50.0,35.1,57,30.06,10.0,WNW,10.4,19.6,N/A,,Overcast,290,2012-10-07 03:53:00